This demonstration page uses our WeatherBlox Daily Observations layout. Learn more.

Left ArrowRight Arrow

39.29038, -76.61219

Hourly Observations for December 13, 2020

Temp ( °F °C ) Dew Point ( °F °C ) Humidity (%) Winds ( mph kmh ) Pressure ( in mb ) Visibility ( mi km ) Precip ( " mm )
12:54 am 00:54 Mostly Clear 56 13.3 47 8.3 72 72 SW 5 7 29.92 1013 10 16 0.00 0.00
1:54 am 01:54 Mostly Clear 55 12.8 46 7.8 72 72 WSW 6 9 29.93 1014 10 16 0.00 0.00
2:54 am 02:54 Partly Cloudy 55 12.8 46 7.8 72 72 SSW 3 6 29.93 1014 10 16 0.00 0.00
3:54 am 03:54 Mostly Clear 53 11.7 46 7.8 77 77 WSW 3 6 29.94 1014 10 16 0.00 0.00
4:54 am 04:54 Mostly Clear 51 10.6 45 7.2 80 80 Calm 29.94 1014 10 16 0.00 0.00
5:54 am 05:54 Mostly Clear 53 11.7 46 7.8 77 77 SW 3 6 29.95 1014 10 16 0.00 0.00
6:54 am 06:54 Mostly Clear 45 7.2 42 5.6 90 90 Calm 29.96 1015 10 16 0.00 0.00
7:54 am 07:54 Mostly Sunny 48 8.9 45 7.2 89 89 W 3 6 29.98 1015 10 16 0.00 0.00
8:54 am 08:54 Mostly Sunny 54 12.2 47 8.3 77 77 WSW 6 9 30.00 1016 10 16 0.00 0.00
9:54 am 09:54 Mostly Cloudy 58 14.4 47 8.3 67 67 WSW 7 11 30.01 1016 10 16 0.00 0.00
10:54 am 10:54 Mostly Cloudy 61 16.1 48 8.9 63 63 W 9 15 30.01 1016 10 16 0.00 0.00
11:54 am 11:54 Mostly Cloudy 64 17.8 44 6.7 48 48 WNW 15 24 29.98 1015 10 16 0.00 0.00
12:54 pm 12:54 Partly Cloudy 65 18.3 43 6.1 45 45 WNW 12 19 29.97 1015 10 16 0.00 0.00
1:54 pm 13:54 Partly Cloudy 63 17.2 41 5 45 45 NW 9 15 29.97 1015 10 16 0.00 0.00
2:54 pm 14:54 Mostly Cloudy 61 16.1 40 4.4 46 46 WNW 9 15 29.99 1016 10 16 0.00 0.00
3:54 pm 15:54 Mostly Cloudy 59 15 38 3.3 46 46 NW 9 15 30.01 1016 10 16 0.00 0.00
4:54 pm 16:54 Clear 55 12.8 36 2.2 49 49 VRB 5 7 30.02 1017 10 16 0.00 0.00
5:54 pm 17:54 Mostly Cloudy 53 11.7 35 1.7 51 51 N 5 7 30.03 1017 10 16 0.00 0.00
6:54 pm 18:54 Mostly Cloudy 51 10.6 35 1.7 54 54 N 5 7 30.06 1018 10 16 0.00 0.00
7:54 pm 19:54 Mostly Cloudy 49 9.4 34 1.1 56 56 NNW 5 7 30.08 1019 10 16 0.00 0.00
8:54 pm 20:54 Mostly Cloudy 47 8.3 34 1.1 61 61 Calm 30.06 1018 10 16 0.00 0.00
9:54 pm 21:54 Partly Cloudy 46 7.8 33 0.6 61 61 N 3 6 30.04 1017 10 16 0.00 0.00
10:54 pm 22:54 Mostly Clear 43 6.1 33 0.6 68 68 Calm 30.06 1018 10 16 0.00 0.00
11:54 pm 23:54 Mostly Clear 40 4.4 33 0.6 77 77 Calm 30.04 1017 10 16 0.00 0.00

Powered by AerisWeather